Home   Weather   Oldenburg   Past weeks

Flag for Germany Past Weather in Oldenburg, Lower Saxony, Germany — Yesterday and Last 2 Weeks

Now
27 °F

Ice fog.


Feels Like: 23 °F
Forecast: 27 / 34 °F
Wind: 3 mph from South

Location: Bremen Airport

Current Time: Jan 18, 2017 at 1:27:34 pm

Latest Report: Jan 18, 2017 at 12:50 pm


Visibility: 2 mi

Pressure: 30.74 "Hg

Humidity: 93%

Dew Point: 25 °F

Location of OldenburgLocation

Past Weather in Oldenburg — Graph

°F

Oldenburg Temperature Yesterday

Maximum temperature yesterday: 25 °F (at 2:50 pm)
Minimum temperature yesterday: 14 °F (at 2:20 am)
Average temperature yesterday: 20 °F

High & Low Weather Summary for the Past Weeks

 TemperatureHumidityPressure
High46 °F (Jan 4, 12:50 am)100% (Jan 3, 7:50 pm)30.77 "Hg (Jan 3, 7:50 pm)
Low14 °F (Jan 6, 3:50 am)44% (Jan 4, 11:20 pm)29.00 "Hg (Jan 13, 3:50 am)
Average32 °F87%30.08 "Hg
* Reported Jan 3 12:20 pm — Jan 18 12:20 pm, Oldenburg, Weather by CustomWeather, © 2017

Note: Actual official high and low records may vary slightly from our data, if they occured in-between our weather recording intervals... More about our weather records

Advertising

Oldenburg Weather History for the Previous 24 Hours

Scroll right to see more
 ConditionsComfort  
Time TempWeatherWind HumidityBarometerVisibility
12:20 pm
Wed, Jan 18
27 °FIce fog.2 mph93%30.74 "Hg2 mi
11:50 am27 °FIce fog.3 mph93%30.74 "Hg2 mi
11:20 am25 °FIce fog.2 mph93%30.74 "Hg2 mi
10:50 am25 °FIce fog.2 mph93%30.74 "Hg2 mi
10:20 am25 °FIce fog.2 mph93%30.74 "Hg2 mi
9:50 am23 °FIce fog.2 mph93%30.74 "Hg1 mi
9:20 am23 °FIce fog.2 mph93%30.74 "Hg1 mi
8:50 am21 °FIce fog.2 mph100%30.74 "Hg1 mi
8:20 am21 °FIce fog.2 mph93%30.72 "Hg1 mi
7:50 am21 °FIce fog.2 mph93%30.72 "Hg1 mi
7:20 am21 °FIce fog.1 mph93%30.72 "Hg1 mi
6:50 am21 °FIce fog.2 mph93%30.72 "Hg1 mi
6:20 am19 °FIce fog.2 mph100%30.72 "Hg1 mi
5:50 am19 °FIce fog.3 mph100%30.72 "Hg1 mi
5:20 am19 °FIce fog.2 mph100%30.72 "Hg0 mi
4:50 am21 °FIce fog.3 mph93%30.72 "Hg0 mi
4:20 am21 °FIce fog.2 mph93%30.72 "Hg1 mi
3:50 am21 °FIce fog.3 mph93%30.72 "Hg1 mi
3:20 am21 °FIce fog.2 mph93%30.74 "Hg2 mi
2:50 am21 °FIce fog.2 mph93%30.74 "Hg2 mi
2:20 am21 °FIce fog.2 mph93%30.72 "Hg2 mi
1:50 am21 °FIce fog.1 mph93%30.74 "Hg2 mi
12:50 am19 °FIce fog.2 mph100%30.72 "Hg2 mi
12:20 am19 °FIce fog.2 mph100%30.72 "Hg2 mi
11:50 pm
Tue, Jan 17
19 °FIce fog.2 mph100%30.72 "Hg1 mi
11:20 pm19 °FPassing clouds.3 mph93%30.72 "Hg4 mi
10:50 pm19 °FPassing clouds.2 mph93%30.72 "Hg4 mi
10:20 pm19 °FIce fog.2 mph93%30.72 "Hg3 mi
9:50 pm19 °FIce fog.1 mph93%30.72 "Hg2 mi
9:20 pm19 °FIce fog.1 mph93%30.72 "Hg3 mi
8:50 pm19 °FIce fog.2 mph93%30.72 "Hg3 mi
8:20 pm19 °FIce fog.2 mph100%30.72 "Hg2 mi
7:50 pm21 °FIce fog.2 mph93%30.72 "Hg2 mi
7:20 pm21 °FIce fog.No wind100%30.72 "Hg2 mi
6:50 pm23 °FIce fog.1 mph93%30.69 "Hg2 mi
6:20 pm23 °FIce fog.2 mph93%30.69 "Hg2 mi
5:50 pm23 °FIce fog.3 mph93%30.69 "Hg2 mi
5:20 pm23 °FIce fog.2 mph93%30.69 "Hg2 mi
4:50 pm23 °FIce fog.2 mph93%30.69 "Hg2 mi
4:20 pm23 °FIce fog.2 mph93%30.69 "Hg2 mi
3:50 pm25 °FIce fog.1 mph93%30.69 "Hg2 mi
3:20 pm25 °FIce fog.2 mph93%30.66 "Hg2 mi
2:50 pm25 °FIce fog.2 mph93%30.66 "Hg2 mi
2:20 pm23 °FIce fog.2 mph93%30.66 "Hg2 mi
1:50 pm23 °FIce fog.2 mph93%30.66 "Hg2 mi
1:20 pm23 °FIce fog.No wind93%30.66 "Hg2 mi
Weather by CustomWeather, © 2017

See weather overviewHow to use our weather pages